Tracking 30009 objects as of 7-Dec-2024
HD Live streaming from Space Station
objects crossing your sky now

STARLINK-31976

Track STARLINK-31976 now!
10-day predictions
STARLINK-31976 is classified as:


NORAD ID: 59887
Int'l Code: 2024-100C
Perigee: 450.3 km
Apogee: 452.2 km
Inclination: 43.0 °
Period: 93.5 minutes
Semi major axis: 6822 km
RCS: Unknown
Launch date: May 28, 2024
Source: United States (US)
Launch site: AIR FORCE EASTERN TEST RANGE (AFETR)
Your satellite tracking list
Your tracking list is empty




NASA's NSSDC Master Catalog

Two Line Element Set (TLE):
1 59887U 24100C   24341.89793439 -.00003901  00000-0 -86227-4 0  9994
2 59887  42.9992 202.8476 0001362 252.3697 107.7011 15.40679108 31001
Source of the keplerian elements: AFSPC